TimeEDT,TemperatureF,Dew PointF,Humidity,Sea Level PressureIn,VisibilityMPH,Wind Direction,Wind SpeedMPH,Gust SpeedMPH,PrecipitationIn,Events,Conditions,WindDirDegrees,DateUTC
12:53 AM,59.0,54.0,83,30.17,10.0,NE,5.8,-,N/A,,Clear,40,2013-08-17 04:53:00
1:53 AM,57.9,54.0,87,30.17,10.0,ENE,5.8,-,N/A,,Clear,60,2013-08-17 05:53:00
2:53 AM,57.9,53.1,84,30.16,10.0,East,6.9,-,N/A,,Clear,80,2013-08-17 06:53:00
3:53 AM,57.0,53.1,87,30.16,10.0,ENE,6.9,-,N/A,,Clear,70,2013-08-17 07:53:00
4:53 AM,55.9,52.0,87,30.16,10.0,ENE,6.9,-,N/A,,Clear,70,2013-08-17 08:53:00
5:53 AM,57.0,53.1,87,30.17,10.0,ENE,5.8,-,N/A,,Clear,70,2013-08-17 09:53:00
6:53 AM,57.9,53.1,84,30.17,10.0,NE,6.9,-,N/A,,Clear,50,2013-08-17 10:53:00
7:53 AM,57.9,54.0,87,30.19,10.0,ENE,4.6,-,N/A,,Clear,60,2013-08-17 11:53:00
8:53 AM,63.0,55.9,78,30.19,10.0,ENE,5.8,-,N/A,,Clear,70,2013-08-17 12:53:00
9:53 AM,69.1,57.9,68,30.19,10.0,NE,6.9,-,N/A,,Clear,50,2013-08-17 13:53:00
10:53 AM,73.0,57.9,59,30.19,10.0,ENE,8.1,-,N/A,,Clear,70,2013-08-17 14:53:00
11:53 AM,77.0,59.0,54,30.19,10.0,ENE,6.9,-,N/A,,Clear,70,2013-08-17 15:53:00
12:53 PM,79.0,59.0,50,30.18,10.0,East,9.2,-,N/A,,Clear,90,2013-08-17 16:53:00
1:53 PM,80.1,60.1,50,30.16,10.0,East,8.1,-,N/A,,Scattered Clouds,80,2013-08-17 17:53:00
2:53 PM,79.0,60.1,52,30.15,10.0,ENE,6.9,-,N/A,,Partly Cloudy,70,2013-08-17 18:53:00
3:53 PM,81.0,59.0,47,30.13,10.0,ENE,10.4,-,N/A,,Clear,70,2013-08-17 19:53:00
4:53 PM,81.0,59.0,47,30.13,10.0,East,6.9,-,N/A,,Partly Cloudy,90,2013-08-17 20:53:00
5:53 PM,82.0,57.9,44,30.13,10.0,ENE,5.8,-,N/A,,Clear,70,2013-08-17 21:53:00
6:53 PM,78.1,59.0,52,30.13,10.0,ENE,6.9,-,N/A,,Clear,70,2013-08-17 22:53:00
7:53 PM,73.9,60.1,62,30.13,10.0,ENE,5.8,-,N/A,,Clear,60,2013-08-17 23:53:00
8:53 PM,70.0,59.0,68,30.13,10.0,NE,5.8,-,N/A,,Clear,50,2013-08-18 00:53:00
9:53 PM,69.1,57.9,68,30.13,10.0,NE,6.9,-,N/A,,Clear,50,2013-08-18 01:53:00
10:53 PM,69.1,57.0,65,30.12,10.0,NE,5.8,-,N/A,,Clear,40,2013-08-18 02:53:00
11:53 PM,64.0,57.0,78,30.13,10.0,ENE,5.8,-,N/A,,Clear,70,2013-08-18 03:53:00